Wind_Speed
12 15 13 13 15 12 14 12 7 15 16 23 19 18 12 14 14 11 12 16 17 15 15 14 19 20 22 19 13 10 9 17 22 26 29 31 32 32 33 34 35 36 36 36
8 14 14 17 19 20 19 17 19 23 23 25 26 19 18 9 8 12 16 17 18 16 17 16 17 20 23 21 14 10 11 14 21 25 28 29 30 31 32 33 34 35 35 38
6 9 10 10 25 19 18 16 19 19 22 23 21 18 20 15 12 13 18 19 19 17 15 15 17 17 21 25 19 12 13 17 21 24 25 26 28 30 33 33 33 33 35 39
5 6 12 11 5 9 15 19 17 20 25 26 24 21 21 18 18 17 16 17 17 16 14 18 20 19 21 20 19 14 15 15 23 25 28 29 30 33 32 33 35 35 38 38
5 9 16 19 12 10 7 17 22 22 23 25 25 18 18 18 17 17 15 14 14 22 22 23 23 19 18 20 20 15 14 15 21 25 28 33 33 33 34 36 35 36 39 38
3 5 7 4 3 5 3 17 7 15 20 23 21 14 15 15 11 12 12 15 18 25 25 27 23 16 16 17 19 17 18 19 22 26 26 31 33 34 34 33 32 34 35 34
10 9 11 8 14 3 8 9 7 5 10 15 11 11 17 9 10 15 18 18 23 22 24 26 25 19 20 19 16 18 21 19 19 22 28 28 30 33 33 30 29 28 32 33
5 8 12 6 5 11 10 7 12 17 17 18 21 18 17 20 19 19 17 21 21 20 21 24 27 23 24 23 18 21 21 20 21 22 27 31 32 30 31 33 31 28 30 27
8 6 6 7 10 12 16 20 20 23 23 22 23 21 22 24 23 19 19 17 26 22 21 23 27 24 23 29 18 22 21 23 24 27 28 33 36 32 29 32 28 26 26 26
15 14 24 22 21 19 20 22 22 21 22 21 23 23 24 23 19 18 19 18 23 23 17 18 26 25 28 25 25 18 21 24 28 30 28 29 29 32 31 30 29 28 26 25
19 22 24 23 22 21 20 20 22 22 22 21 21 22 22 21 21 18 19 21 22 18 18 24 27 23 25 25 19 17 20 23 23 24 27 26 25 26 27 31 32 33 31 34
16 22 18 22 18 21 22 24 23 23 22 22 22 22 22 21 19 17 19 22 19 25 24 28 25 21 20 14 15 23 21 22 23 25 26 26 27 20 17 27 31 28 35 40
22 22 21 25 21 22 20 21 21 20 21 21 22 19 21 19 19 20 19 22 21 23 26 29 26 20 16 15 23 25 24 24 25 27 28 28 28 28 25 25 30 32 35 35
16 13 15 18 14 20 21 20 20 20 18 17 18 17 18 18 19 16 20 19 26 29 29 26 16 16 18 21 24 22 22 26 27 25 27 28 30 29 30 29 26 25 27 28
11 6 12 14 19 18 18 16 18 17 18 17 16 16 17 17 15 13 18 24 24 19 12 14 15 15 21 23 22 23 23 22 22 23 26 29 31 32 30 31 28 27 28 29
15 13 16 16 18 18 16 16 16 17 17 17 16 9 9 12 11 10 12 11 3 5 11 14 14 15 20 21 22 22 21 24 25 24 25 27 31 33 30 30 31 28 26 27
13 16 16 15 15 17 17 15 13 14 14 12 9 8 9 8 6 5 5 6 7 7 10 13 13 16 19 20 20 20 23 26 29 27 25 26 27 29 29 28 27 25 26 28
10 13 13 14 14 15 14 13 12 11 8 8 7 7 6 6 6 6 7 12 16 17 17 20 23 24 25 25 25 24 25 26 25 27 29 27 25 27 27 28 27 27 26 28
10 11 12 13 11 12 11 11 10 7 7 8 7 8 7 8 9 11 12 13 10 10 12 24 27 27 27 29 27 27 24 25 25 25 27 30 26 25 26 26 26 27 28 27
10 10 10 12 15 9 11 10 8 4 8 8 8 7 8 9 14 16 19 11 13 12 22 27 28 28 29 31 30 29 27 26 26 25 26 26 26 25 26 28 27 26 24 23
9 10 10 10 11 12 11 11 4 3 6 10 6 6 8 14 17 16 11 8 16 25 27 27 26 25 28 30 29 25 25 24 25 25 25 26 26 25 26 26 25 25 23 24
7 7 8 10 9 8 14 13 7 7 7 9 10 10 11 13 18 20 20 13 18 27 27 25 25 25 27 28 27 25 23 24 24 24 24 24 25 25 25 25 24 23 24 24
5 6 6 7 9 9 13 14 12 10 9 10 10 12 11 10 10 8 7 14 21 24 25 25 24 23 23 23 22 23 24 25 23 23 23 23 24 25 25 24 24 24 23 23
4 6 7 7 9 7 8 11 13 14 13 15 15 12 10 12 16 18 22 23 26 25 23 21 22 22 22 20 21 20 20 24 23 22 23 24 24 24 25 24 23 23 24 24
4 5 6 5 5 4 6 6 9 11 11 14 14 13 10 10 14 15 22 22 23 24 22 19 20 20 20 20 20 20 20 23 24 24 23 23 23 24 23 24 24 25 26 25
2 1 3 3 3 4 5 5 3 6 8 8 10 11 14 18 20 20 20 20 20 19 18 18 19 19 18 19 19 19 20 22 23 23 24 23 24 24 23 24 25 26 26 24
3 2 2 1 2 3 3 3 2 3 6 7 8 10 13 16 18 19 18 18 17 16 16 16 16 17 17 17 19 19 19 21 22 22 23 24 25 25 25 24 24 25 25 25
Wind_Direction
260 272 280 281 282 264 235 234 235 269 273 281 281 294 299 303 305 315 325 323 322 325 330 332 331 338 344 337 313 279 233 206 198 198 199 201 199 194 193 189 187 187 183 183
272 274 274 280 276 261 247 241 243 251 259 264 273 287 282 272 286 306 311 307 312 311 318 325 328 330 332 333 314 273 239 216 208 202 198 194 189 185 184 184 179 177 175 177
268 305 293 275 246 252 249 246 235 248 251 275 277 272 273 288 276 280 292 299 302 298 309 314 318 320 323 321 321 267 239 229 215 203 194 185 182 180 180 174 172 168 170 174
274 283 252 258 314 261 255 265 258 253 255 261 270 276 280 281 274 277 277 285 289 294 301 307 313 309 314 318 311 275 244 220 218 200 198 191 183 181 176 175 170 167 170 176
243 234 284 292 266 240 222 271 250 246 258 262 265 278 272 260 269 267 273 278 282 287 293 300 304 301 306 310 306 284 257 225 216 207 195 189 187 181 176 173 169 169 174 175
177 254 267 289 160 190 197 271 312 263 257 268 277 280 279 282 263 265 272 271 282 286 290 298 295 287 291 294 299 292 265 235 217 208 202 192 186 180 176 172 164 165 169 172
233 244 259 253 250 257 231 260 284 287 301 294 276 261 269 287 285 293 291 272 275 274 282 285 287 288 284 283 277 285 274 242 215 200 196 190 180 175 166 157 151 149 154 161
230 239 270 238 228 219 251 281 297 308 307 302 292 288 273 283 291 300 288 281 264 264 271 275 279 283 278 274 278 290 274 233 207 190 183 176 171 159 154 152 147 146 142 141
221 233 263 257 267 275 287 284 285 284 285 286 284 281 282 289 294 295 279 273 268 265 266 265 270 271 268 271 276 292 248 209 187 177 175 173 162 154 152 153 151 149 148 143
273 250 261 270 279 276 277 278 280 278 278 278 274 275 278 282 284 282 276 274 268 264 261 258 262 263 254 267 287 263 200 184 174 166 160 161 159 162 161 161 156 154 154 146
271 275 276 273 269 273 277 278 277 275 274 273 272 272 274 276 278 275 275 273 264 249 250 259 265 259 260 274 278 217 178 169 162 157 156 154 155 167 173 166 166 162 161 152
264 271 278 279 289 288 288 283 282 285 284 275 271 272 273 275 274 275 274 277 271 259 248 251 259 256 258 251 231 186 163 162 160 154 151 149 139 135 159 154 152 160 165 166
257 266 273 279 289 292 290 291 291 289 284 278 275 274 274 274 275 275 275 282 273 263 254 257 255 244 245 226 201 184 168 165 160 156 154 150 146 149 137 143 156 167 167 165
271 277 277 281 293 302 297 298 298 292 286 281 278 280 276 277 279 270 285 274 274 267 257 247 232 218 212 203 191 175 163 165 161 161 155 152 156 150 146 140 136 130 159 152
275 287 288 292 297 302 305 308 306 300 300 297 296 291 287 287 288 289 291 290 271 252 223 182 180 184 188 180 173 158 156 160 156 156 156 154 148 140 138 132 128 127 133 140
301 295 308 308 307 302 307 304 304 304 302 301 298 299 307 297 291 303 306 284 214 167 159 163 167 169 164 168 150 147 150 147 143 142 141 143 140 135 133 130 130 135 136 141
315 317 321 310 309 308 306 302 298 299 302 305 326 324 321 317 329 334 356 41 68 96 119 120 116 141 149 144 138 138 135 132 131 131 136 137 134 128 129 130 130 134 135 145
310 305 302 298 304 306 306 304 307 309 316 327 339 348 351 2 4 7 24 73 76 71 86 112 122 123 120 121 121 122 125 124 126 126 124 117 119 125 126 124 127 128 130 139
312 306 314 313 307 303 300 303 311 316 339 354 13 20 19 25 32 42 53 63 72 72 70 100 108 108 108 116 114 112 112 112 111 110 112 114 116 117 119 121 124 127 132 135
321 333 329 325 324 309 309 312 323 354 10 17 26 28 44 48 56 63 63 57 57 81 94 96 97 97 102 108 105 103 104 106 108 110 112 112 114 114 115 119 123 126 129 131
331 334 335 336 329 325 327 329 335 40 43 41 37 39 59 64 60 62 64 60 55 79 86 92 93 91 96 104 105 102 105 109 110 113 113 113 113 117 122 126 126 127 130 131
335 334 333 343 339 346 1 9 47 75 69 61 58 65 78 75 78 71 60 70 74 90 85 83 91 99 104 108 107 104 104 105 107 112 116 120 124 124 125 129 130 133 133 133
334 332 329 352 347 350 13 24 32 46 61 60 67 71 58 58 68 83 77 70 88 93 92 95 103 104 105 102 104 110 116 112 114 118 120 124 127 130 131 132 132 134 135 138
326 327 329 348 0 11 30 24 42 44 55 60 65 76 90 91 67 83 103 103 100 96 97 103 106 106 108 108 110 111 114 116 117 119 122 125 127 131 134 136 138 141 144 141
294 314 331 352 18 11 13 29 59 49 51 58 58 69 88 99 107 106 110 107 105 102 102 103 107 111 111 112 112 111 111 117 124 127 129 130 134 136 140 143 145 146 146 148
275 292 324 354 6 5 16 30 33 50 65 67 59 72 93 107 116 117 117 116 113 111 110 111 109 108 107 109 114 121 127 130 134 136 140 140 141 141 145 149 153 155 155 155
213 217 284 292 11 11 25 41 77 69 80 92 94 103 113 120 122 122 124 122 117 112 112 115 115 113 115 116 121 130 137 141 145 144 145 146 150 153 156 157 156 157 159 160
Height
759 753 753 752 749 748 749 747 753 724 722 699 700 701 707 706 704 701 696 693 688 684 681 680 678 675 671 667 665 663 660 660 661 663 667 671 675 680 685 691 696 702 709 717
768 752 750 750 740 734 734 735 734 727 721 699 691 700 699 703 702 697 694 690 687 683 680 678 676 673 670 666 664 663 660 659 660 662 664 667 672 677 684 690 694 700 708 714
764 752 750 753 721 721 718 715 718 718 704 693 694 695 691 695 696 696 691 686 684 681 678 678 675 673 670 665 660 659 658 658 658 661 663 666 670 676 681 686 693 699 706 712
764 762 757 716 714 712 714 709 708 708 698 686 687 688 686 689 688 687 687 685 680 676 675 674 672 670 667 664 659 656 655 655 658 658 660 664 668 670 677 684 689 695 702 711
761 752 728 720 710 710 714 700 687 690 688 680 675 681 682 682 682 680 680 679 678 674 672 669 667 665 663 660 656 653 655 654 655 658 658 659 665 670 674 681 687 692 701 708
768 756 743 706 703 704 707 699 686 682 683 682 678 682 670 670 673 675 675 674 671 668 665 663 661 660 658 655 654 652 650 649 650 653 657 658 660 666 673 681 686 692 703 711
748 745 718 705 701 703 714 694 681 681 682 680 679 676 667 667 670 670 668 667 665 662 660 657 655 653 650 648 649 647 645 644 645 647 650 656 660 665 671 680 689 697 704 711
743 737 725 694 699 702 686 683 685 681 679 677 674 671 668 663 663 661 661 659 657 655 653 651 648 647 642 638 640 639 639 638 638 641 646 650 657 665 670 678 685 698 704 711
724 706 695 696 695 692 689 684 683 680 677 675 668 664 659 651 651 651 651 649 646 646 643 643 640 639 636 629 632 632 631 631 633 636 642 646 651 661 671 676 685 694 701 706
713 698 691 690 686 686 682 677 674 672 668 666 660 657 650 643 641 640 637 635 636 636 633 631 630 630 627 625 626 624 623 626 629 632 639 647 650 658 665 672 679 688 699 703
701 693 685 684 680 677 673 671 665 660 657 654 649 643 641 633 631 629 626 624 626 623 621 618 618 619 617 617 618 617 617 623 626 630 636 645 649 658 665 665 673 681 689 694
694 681 681 672 671 671 666 659 654 650 647 643 640 634 631 624 621 620 615 612 610 609 608 605 607 608 609 610 612 613 614 619 623 628 635 641 646 661 670 669 671 684 692 694
684 679 676 666 665 662 659 652 647 643 638 633 627 625 620 616 611 606 604 601 597 593 593 593 594 598 601 602 606 605 606 614 620 624 630 635 644 657 666 678 678 688 696 700
676 675 673 666 662 660 655 648 642 635 630 625 620 616 611 605 600 595 592 588 587 584 582 581 584 589 593 595 600 600 603 610 614 621 625 631 645 651 660 665 677 688 700 703
671 672 671 668 661 654 650 643 637 631 626 619 616 610 603 597 592 588 584 580 574 570 571 574 579 583 586 590 596 597 603 610 614 620 627 634 642 647 657 665 676 687 700 708
667 667 663 661 657 651 645 639 633 628 622 615 609 603 600 595 589 585 581 577 573 570 571 574 577 581 585 592 593 598 604 609 615 622 629 637 640 645 658 666 675 688 698 707
669 661 661 658 654 647 642 637 630 623 618 611 608 604 600 595 590 587 582 579 577 575 575 577 579 583 587 591 595 602 606 611 615 623 632 639 644 650 659 669 678 689 698 706
670 666 663 658 651 644 638 633 627 621 616 614 610 606 601 597 594 591 587 584 582 581 582 583 583 586 590 593 599 604 610 615 622 626 630 638 648 655 663 671 682 691 701 710
667 663 659 654 649 643 636 630 625 622 619 616 611 608 605 602 599 596 594 592 591 592 594 592 594 595 599 602 606 609 616 621 627 633 639 644 656 664 669 678 687 695 703 712
664 661 657 651 645 640 634 629 626 623 621 618 616 613 610 608 606 604 602 603 602 603 603 602 603 606 608 610 612 616 621 628 634 640 647 654 662 669 676 684 692 700 708 715
663 661 656 649 644 639 634 629 626 625 624 622 620 619 617 615 613 612 611 612 614 612 611 612 613 615 617 619 622 627 632 638 643 648 654 660 667 676 683 691 697 704 712 719
663 661 656 650 646 640 635 631 629 627 627 626 625 624 623 621 621 621 622 622 622 620 620 622 623 625 627 629 633 638 643 647 651 657 662 668 675 681 688 695 702 709 715 721
663 661 657 652 648 644 640 636 634 632 630 630 630 629 629 628 628 627 628 632 630 629 629 632 634 635 638 640 643 646 650 653 659 664 669 674 680 686 693 699 705 711 717 723
662 661 659 655 651 648 644 642 640 638 635 634 634 634 633 633 635 635 636 637 638 638 640 641 642 643 646 649 652 654 657 658 663 670 676 680 685 691 696 702 708 714 720 725
662 661 659 656 653 652 649 647 645 643 642 641 640 639 638 638 637 642 642 644 645 645 647 649 649 651 653 656 658 660 663 665 670 675 681 686 691 696 701 706 711 716 720 725
660 660 660 658 656 654 652 651 648 647 646 646 646 645 645 644 645 647 648 650 651 652 653 655 657 658 659 659 662 666 670 674 678 682 686 691 694 699 704 709 713 718 723 729
658 659 659 658 656 655 653 653 652 652 651 650 650 650 650 650 651 652 654 656 656 658 658 661 662 664 665 667 669 673 677 680 683 687 690 693 697 701 706 710 715 719 724 729